Regional Weather Roundup
Issued by NWS State College, PA

Home | Current Version | Previous Version | Graphics & Text | Print | Product List | Glossary Off
Versions: 1 2 3 4 5 6 7 8 9 10 11 12 13 14 15 16 17 18 19 20 21 22 23 24 25 26 27 28 29 30 31 32 33 34 35 36 37 38 39 40 41 42 43 44 45 46 47 48 49 50

000
ASUS41 KCTP 020603
RWRCTP

REGIONAL WEATHER ROUNDUP
NATIONAL WEATHER SERVICE STATE COLLEGE PA
200 AM EDT WED SEP 02 2015

Note: "fair" indicates few or no clouds below 12,000 feet with no
significant weather and/or obstructions to visibility.

* = STATION THAT DOES NOT REPORT PRECIPITATION /E.G. RAIN...SNOW...ETC/
    THUNDER OR FOG.

PAZ002>004-007>009-013>016-020>023-029>032-020700-
WESTERN PENNSYLVANIA

CITY           SKY/WX    TMP DP  RH WIND       PRES   REMARKS
ERIE           FAIR      70  64  81 S5        30.08S
MEADVILLE      FAIR      68  63  84 CALM      30.12F
FRANKLIN*      FAIR      66  63  88 CALM      30.14S
NEW CASTLE     FAIR      68  68 100 CALM      30.11F FOG
BEAVER COUNTY  NOT AVBL
BUTLER*        FAIR      66  64  94 CALM      30.12F
PITTSBURGH INT MOCLDY    73  66  78 W3        30.10F
PITTSBURGH     FAIR      73  63  70 CALM      30.11S
INDIANA*       MOCLDY    66  64  94 CALM      30.15S
LATROBE        NOT AVBL
WASHINGTON CO* FAIR      66  66 100 CALM      30.12F
$$

PAZ004>006-010>012-017>019-024>028-033>037-041-042-045-046-049>053-020700-
CENTRAL PENNSYLVANIA

CITY           SKY/WX    TMP DP  RH WIND       PRES   REMARKS
BRADFORD       FAIR      58  56  93 CALM      30.14F FOG
DUBOIS         FAIR      67  62  84 CALM      30.13F HAZE
CLEARFIELD     FAIR      64  62  93 CALM      30.13S FOG
JOHNSTOWN      FAIR      69  61  75 SW3       30.16F
ALTOONA        FAIR      65  62  90 CALM      30.12F FOG
STATE COLLEGE  FAIR      66  65  95 CALM      30.10F FOG
WILLIAMSPORT   FAIR      67  64  90 NW3       30.06S
SELINSGROVE    FAIR      63  61  93 CALM      30.07S FOG
FT INDIANTOWN  FAIR      65  64  96 CALM      30.06S
CAPITAL CITY   FAIR      69  64  84 W5        30.05F
HARRISBURG     FAIR      70  66  87 CALM      30.05F
YORK           FAIR      63  61  93 CALM      30.06F FOG
$$

PAZ038>040-043-044-047-048-054-055-060>062-067>071-020700-
EASTERN PENNSYLVANIA

CITY           SKY/WX    TMP DP  RH WIND       PRES   REMARKS
SCRANTON       FAIR      67  61  81 E8        30.07F
MOUNT POCONO   FAIR      60  57  89 NE3       30.12F
ALLENTOWN      FAIR      68  64  87 CALM      30.06S
QUAKERTOWN*    FAIR      64  64 100 CALM      30.07F
READING        FAIR      69  65  86 CALM      30.04F
LANCASTER      FAIR      66  63  90 CALM      30.06S
COATESVILLE    FAIR      66  66 100 CALM      30.08S FOG
POTTSTOWN      FAIR      67  66  97 CALM      30.07F
BLUE BELL        N/A     64  64 100 CALM      30.05S
DOYLESTOWN     FAIR      67  66  97 CALM      30.05F
WILLOW GROVE   NOT AVBL
NORTH PHILA    FAIR      73  66  78 CALM      30.06S HAZE
PHILADELPHIA   FAIR      75  71  87 CALM      30.05S HAZE
$$


USA.gov is the U.S. government's official web portal to all federal, state and local government web resources and services.